Find Starlink 5043

NORAD ID: 53894 Int'l Des: 2022-119 Owner: SPXS Country: US Constellation: starlink operational
LEOCIRCULAR

現在のビュー

3D地球を読み込み中...

About Starlink 5043

Starlink 5043 (NORAD 53894) is a starlink constellation satellite (v1.5) launched Sep 24, 2022 by SPXS of US. It operates in LEO, CIRCULAR orbit with a mass of 305.00 kg.

次回通過

Passes for default location (London). Set your location on the main map for personalized predictions.

高度履歴

Loading altitude history...

軌道要素

1 53894U 22119J 26229.00002315 .00017128 00000-0 56256-3 0 9992
2 53894 53.1601 307.1946 0001209 64.9544 179.7051 15.31692508 5860
Epoch: Aug 17, 2026 • Age: 17 hours

現在のステータス

高度 477.2 km
遠地点 / 近地点 N/A
速度 7.63 km/s
衛星直下点 -20.99°S, 81.5°W
打ち上げ日 Sep 24, 2022
運用期間 3.8 years
タイプ internet

技術仕様

分類 Payload
質量 305.00 kg
乾燥質量 290.00 kg
総質量 305.00 kg
長さ 0.20 m
直径 2.80 m
スパン 9.00 m
形状 Box + pan
製造者 SPXS
バスタイプ Starlink
フェーズステータス In Orbit
所有者/国 SPXS/US

Most Searched